Weather History for Lebanon, NH

Change the Weather History Date:

Tuesday, March 19, 2013

  Actual Average Record
Temperature  
Mean Temperature 30 °F -  
Max Temperature 33 °F 43 °F 79 °F (2012)
Min Temperature 26 °F 22 °F -12 °F (1967)
Degree Days  
Heating Degree Days 36    
Moisture  
Dew Point 24 °F    
Average Humidity 82    
Maximum Humidity 93    
Minimum Humidity 69    
Precipitation  
Precipitation 0.36 in - - ()
Sea Level Pressure  
Sea Level Pressure 29.88 in    
Wind  
Wind Speed 2 mph (NE)    
Max Wind Speed 8 mph    
Max Gust Speed 16 mph    
Visibility 2 miles    
Events Fog , Snow    
Averages and records for this station are not official NWS values.
T = Trace of Precipitation, MM = Missing Value Source: NWS Daily Summary

Daily Weather History Graph

Daily Weather History Graph

Search for Another Location

Airport:

Trip Planner

Search our weather history database for the weather conditions in past years. The results will help you decide how hot, cold, wet, or windy it might be!

Date:

Astronomy

Mar. 19, 2013 Rise Set
Actual Time 6:53 AM EDT 7:00 PM EDT
Civil Twilight 6:25 AM EDT 7:29 PM EDT
Nautical Twilight 5:51 AM EDT 8:02 PM EDT
Astronomical Twilight 5:17 AM EDT 8:37 PM EDT
Moon 11:31 AM EDT (3/19) 1:55 AM EDT (3/19)
Length of Visible Light 13h 03m
Length of Day
12h 06m
Waxing Crescent, 49% of the Moon is Illuminated
Mar 19
Waxing Crescent
Mar 19
First Quarter
Mar 27
Full
Apr 3
Last Quarter
Apr 10
New

Hourly Weather History & Observations

Time (EDT) Temp. Windchill Dew Point Humidity Pressure Visibility Wind Dir Wind Speed Gust Speed Precip Events Conditions
12:16 AM 28.4 °F 20.4 °F 19.4 °F 69% 30.16 in 3.0 mi SE 8.1 mph - 0.00 in Snow Light Snow
12:23 AM 28.4 °F - 19.4 °F 69% 30.15 in 2.5 mi Calm Calm - 0.00 in Snow Light Snow
12:53 AM 28.0 °F - 21.9 °F 78% 30.17 in 1.5 mi Calm Calm - 0.00 in Snow Light Snow
1:12 AM 28.4 °F - 21.2 °F 74% 30.12 in 2.0 mi Calm Calm - 0.00 in Snow Light Snow
1:21 AM 28.4 °F - 21.2 °F 74% 30.12 in 3.0 mi Calm Calm - 0.00 in Snow Light Snow
1:50 AM 28.4 °F - 21.2 °F 74% 30.10 in 2.5 mi Calm Calm - 0.00 in Snow Light Snow
1:53 AM 28.0 °F - 21.9 °F 78% 30.13 in 2.0 mi Calm Calm - 0.00 in Snow Light Snow
2:01 AM 28.4 °F - 23.0 °F 80% 30.09 in 1.2 mi Calm Calm - 0.01 in Snow Light Snow
2:23 AM 28.4 °F - 23.0 °F 80% 30.08 in 2.5 mi Calm Calm - 0.01 in Snow Light Snow
2:53 AM 28.0 °F 24.2 °F 24.1 °F 85% 30.09 in 1.8 mi Variable 3.5 mph - 0.02 in Snow Light Snow
3:30 AM 28.4 °F - 23.0 °F 80% 30.05 in 1.0 mi Calm Calm - 0.01 in Snow Light Snow
3:40 AM 28.4 °F - 24.8 °F 86% 30.05 in 0.8 mi Calm Calm - 0.02 in Snow Light Snow
3:53 AM 28.0 °F 24.2 °F 24.1 °F 85% 30.07 in 0.8 mi Variable 3.5 mph - 0.03 in Snow Light Snow
4:53 AM 28.0 °F - 24.1 °F 85% 30.04 in 0.5 mi Calm Calm - 0.08 in Fog , Snow Snow
5:09 AM 26.6 °F - 24.8 °F 93% 30.01 in 1.0 mi Calm Calm - 0.01 in Snow Light Snow
5:36 AM 28.4 °F - 24.8 °F 86% 30.01 in 1.2 mi Calm Calm - 0.02 in Snow Light Snow
5:53 AM 28.0 °F - 24.1 °F 85% 30.03 in 1.5 mi Calm Calm - 0.03 in Snow Light Snow
6:21 AM 28.4 °F 24.6 °F 24.8 °F 86% 29.99 in 2.0 mi North 3.5 mph - 0.00 in Snow Light Snow
6:41 AM 28.4 °F - 24.8 °F 86% 29.99 in 1.5 mi Calm Calm - 0.01 in Snow Light Snow
6:53 AM 28.0 °F - 24.1 °F 85% 30.02 in 1.5 mi Calm Calm - 0.01 in Snow Light Snow
7:53 AM 28.9 °F 25.2 °F 25.0 °F 85% 29.99 in 1.8 mi Variable 3.5 mph - 0.01 in Snow Light Snow
8:11 AM 28.4 °F 24.6 °F 24.8 °F 86% 29.96 in 2.0 mi NNE 3.5 mph - 0.00 in Snow Light Snow
8:46 AM 28.4 °F 24.6 °F 24.8 °F 86% 29.94 in 3.0 mi Variable 3.5 mph - 0.00 in Snow Light Snow
8:53 AM 28.9 °F - 25.0 °F 85% 29.96 in 3.0 mi Calm Calm - 0.00 in Snow Light Snow
9:02 AM 30.2 °F 26.7 °F 24.8 °F 80% 29.93 in 2.5 mi ENE 3.5 mph - 0.00 in Snow Light Snow
9:13 AM 30.2 °F 26.7 °F 24.8 °F 80% 29.92 in 4.0 mi Variable 3.5 mph - 0.00 in   Haze
9:53 AM 30.9 °F 27.5 °F 23.0 °F 72% 29.94 in 6.0 mi Variable 3.5 mph - 0.00 in   Haze
10:53 AM 30.9 °F 27.5 °F 23.0 °F 72% 29.91 in 4.0 mi Variable 3.5 mph - 0.00 in   Haze
11:53 AM 32.0 °F 26.4 °F 23.0 °F 69% 29.88 in 8.0 mi Variable 5.8 mph - N/A   Overcast
12:53 PM 33.1 °F 30.0 °F 24.1 °F 70% 29.91 in 6.0 mi Variable 3.5 mph - N/A   Haze
1:16 PM 32.0 °F 27.5 °F 24.8 °F 75% 29.84 in 1.8 mi Variable 4.6 mph 16.1 mph 0.01 in Snow Light Snow
1:30 PM 30.2 °F - 26.6 °F 86% 29.83 in 0.8 mi Calm Calm - 0.02 in Snow Light Snow
1:48 PM 30.2 °F - 26.6 °F 86% 29.82 in 0.5 mi Calm Calm - 0.04 in Snow Snow
1:53 PM 30.9 °F - 26.1 °F 82% 29.85 in 0.5 mi Calm Calm - 0.05 in Snow Snow
2:08 PM 30.2 °F - 26.6 °F 86% 29.83 in 0.5 mi Calm Calm - 0.02 in Snow Snow
2:26 PM 30.2 °F 26.7 °F 26.6 °F 86% 29.79 in 0.2 mi Variable 3.5 mph - 0.05 in Fog , Snow Heavy Snow
2:53 PM 30.9 °F - 27.0 °F 85% 29.80 in 0.5 mi Calm Calm - 0.07 in Fog , Snow Snow
3:05 PM 30.2 °F 26.7 °F 28.4 °F 93% 29.75 in 0.8 mi Variable 3.5 mph - 0.01 in Snow Light Snow
3:14 PM 30.2 °F - 26.6 °F 86% 29.74 in 0.8 mi Calm Calm - 0.01 in Snow Light Snow
3:31 PM 30.2 °F 25.4 °F 26.6 °F 86% 29.74 in 0.8 mi WNW 4.6 mph - 0.02 in Snow Light Snow
3:53 PM 30.9 °F - 26.1 °F 82% 29.78 in 0.8 mi Calm Calm - 0.03 in Snow Light Snow
4:17 PM 30.2 °F 25.4 °F 24.8 °F 80% 29.73 in 2.0 mi ENE 4.6 mph - 0.01 in Snow Light Snow
4:28 PM 30.2 °F 25.4 °F 24.8 °F 80% 29.73 in 4.0 mi NE 4.6 mph - 0.01 in Snow Light Snow
4:35 PM 30.2 °F 25.4 °F 24.8 °F 80% 29.73 in 2.0 mi Variable 4.6 mph - 0.01 in   Haze
4:53 PM 32.0 °F 28.7 °F 24.1 °F 73% 29.75 in 2.0 mi NE 3.5 mph - 0.01 in   Haze
5:00 PM 32.0 °F 27.5 °F 23.0 °F 69% 29.72 in 4.0 mi Variable 4.6 mph - 0.00 in Snow Light Snow
5:50 PM 30.2 °F 26.7 °F 23.0 °F 75% 29.72 in 2.5 mi Variable 3.5 mph - 0.00 in Snow Light Snow
5:53 PM 30.0 °F - 23.0 °F 75% 29.75 in 2.5 mi Calm Calm - 0.00 in Snow Light Snow
6:15 PM 30.2 °F - 23.0 °F 75% 29.73 in 3.0 mi Calm Calm - 0.00 in   Haze
6:36 PM 28.4 °F 23.3 °F 23.0 °F 80% 29.73 in 2.5 mi NE 4.6 mph - 0.00 in Snow Light Snow
6:53 PM 28.9 °F 25.2 °F 24.1 °F 82% 29.75 in 2.5 mi North 3.5 mph - 0.00 in Snow Light Snow
7:00 PM 28.4 °F - 24.8 °F 86% 29.73 in 4.0 mi Calm Calm - N/A   Haze
7:53 PM 28.0 °F - 24.1 °F 85% 29.76 in 5.0 mi Calm Calm - 0.01 in Snow Light Snow
8:40 PM 28.4 °F - 24.8 °F 86% 29.73 in 2.0 mi Calm Calm - 0.00 in Snow Light Snow
8:53 PM 28.0 °F - 24.1 °F 85% 29.76 in 2.5 mi Calm Calm - 0.00 in Snow Light Snow
9:01 PM 28.4 °F - 24.8 °F 86% 29.73 in 3.0 mi Calm Calm - 0.00 in Snow Light Snow
9:22 PM 28.4 °F - 24.8 °F 86% 29.73 in 2.5 mi Calm Calm - 0.00 in Snow Light Snow
9:40 PM 26.6 °F - 24.8 °F 93% 29.74 in 4.0 mi Calm Calm - 0.01 in Snow Light Snow
9:53 PM 28.0 °F - 23.0 °F 81% 29.77 in 3.0 mi Calm Calm - 0.01 in Snow Light Snow
9:59 PM 28.4 °F 23.3 °F 24.8 °F 86% 29.74 in 1.8 mi SW 4.6 mph - 0.00 in Snow Light Snow
10:21 PM 26.6 °F - 24.8 °F 93% 29.73 in 2.0 mi Calm Calm - 0.00 in Snow Light Snow
10:28 PM 26.6 °F 22.6 °F 24.8 °F 93% 29.73 in 2.5 mi South 3.5 mph - 0.00 in Snow Light Snow
10:51 PM 26.6 °F - 23.0 °F 86% 29.73 in 3.0 mi Calm Calm - 0.00 in Snow Light Snow
10:53 PM 27.0 °F - 23.0 °F 85% 29.75 in 2.5 mi Calm Calm - 0.00 in Snow Light Snow
11:03 PM 26.6 °F - 23.0 °F 86% 29.72 in 4.0 mi Calm Calm - 0.00 in Snow Light Snow
11:38 PM 26.6 °F - 23.0 °F 86% 29.71 in 2.0 mi Calm Calm - 0.00 in Snow Light Snow
11:53 PM 26.1 °F - 23.0 °F 88% 29.74 in 2.5 mi Calm Calm - 0.00 in Snow Light Snow